| time (UTC) | temp C | wind direction | speed KPH | gust KPH | rain 1hr cm | rain 24hr cm | rain mn cm | humidity % | barometer mb |
| 20260510162517 | 17 | 315 | 3.2 | 8.0 | 0.00 | 0.28 | 0.28 | 51 | 1011.9 |
| 20260510161517 | 17 | 270 | 3.2 | 6.4 | 0.00 | 0.28 | 0.28 | 52 | 1011.6 |
| 20260510160517 | 17 | 270 | 4.8 | 14.5 | 0.00 | 0.28 | 0.28 | 51 | 1011.7 |
| 20260510155518 | 17 | 338 | 4.8 | 8.0 | 0.00 | 0.28 | 0.28 | 52 | 1011.9 |
| 20260510154518 | 16 | 338 | 3.2 | 6.4 | 0.03 | 0.28 | 0.28 | 53 | 1011.9 |
| 20260510153518 | 16 | 315 | 4.8 | 9.7 | 0.10 | 0.28 | 0.28 | 54 | 1012.0 |
| 20260510152518 | 16 | 338 | 6.4 | 9.7 | 0.10 | 0.28 | 0.28 | 54 | 1012.0 |
| 20260510151518 | 16 | 315 | 6.4 | 14.5 | 0.10 | 0.28 | 0.28 | 56 | 1012.0 |
| 20260510150518 | 16 | 293 | 14.5 | 29.0 | 0.10 | 0.28 | 0.28 | 57 | 1012.4 |
| 20260510145518 | 16 | 203 | 11.3 | 22.5 | 0.10 | 0.28 | 0.28 | 55 | 1012.4 |
| 20260510144517 | 18 | 180 | 9.7 | 32.2 | 0.10 | 0.25 | 0.25 | 51 | 1012.3 |
| 20260510143518 | 18 | 203 | 3.2 | 4.8 | 0.13 | 0.18 | 0.18 | 50 | 1011.5 |
| 20260510142517 | 17 | 180 | 1.6 | 8.0 | 0.18 | 0.18 | 0.18 | 52 | 1011.5 |
| 20260510141517 | 17 | 158 | 1.6 | 6.4 | 0.18 | 0.18 | 0.18 | 54 | 1011.7 |
| 20260510140519 | 17 | 180 | 6.4 | 14.5 | 0.18 | 0.18 | 0.18 | 54 | 1011.9 |
| 20260510135517 | 17 | 180 | 3.2 | 6.4 | 0.18 | 0.18 | 0.18 | 55 | 1012.1 |
| 20260510134538 | 17 | 180 | 16.1 | 29.0 | 0.15 | 0.15 | 0.15 | 52 | 1012.3 |
| 20260510133528 | 20 | 68 | 3.2 | 11.3 | 0.05 | 0.05 | 0.05 | 45 | 1012.2 |
| 20260510132532 | 21 | 113 | 9.7 | 20.9 | 0.00 | 0.00 | 0.00 | 39 | 1011.7 |
| 20260510131518 | 21 | 113 | 9.7 | 17.7 | 0.00 | 0.00 | 0.00 | 37 | 1011.5 |
| 20260510130534 | 22 | 90 | 3.2 | 17.7 | 0.00 | 0.00 | 0.00 | 37 | 1011.8 |
| 20260510124518 | 21 | 90 | 8.0 | 17.7 | 0.00 | 0.00 | 0.00 | 38 | 1011.6 |
| 20260510123517 | 21 | 113 | 6.4 | 14.5 | 0.00 | 0.00 | 0.00 | 39 | 1012.0 |
| 20260510122517 | 21 | 180 | 4.8 | 14.5 | 0.00 | 0.00 | 0.00 | 36 | 1012.1 |
| 20260510121538 | 20 | 180 | 11.3 | 17.7 | 0.00 | 0.00 | 0.00 | 35 | 1012.3 |
| 20260510120517 | 20 | 180 | 8.0 | 19.3 | 0.00 | 0.00 | 0.00 | 34 | 1012.3 |
| 20260510115517 | 20 | 180 | 9.7 | 16.1 | 0.00 | 0.00 | 0.00 | 36 | 1012.5 |
| 20260510114517 | 20 | 203 | 9.7 | 17.7 | 0.00 | 0.00 | 0.00 | 35 | 1012.7 |
| 20260510113517 | 20 | 180 | 8.0 | 17.7 | 0.00 | 0.00 | 0.00 | 39 | 1013.0 |
| 20260510112517 | 20 | 203 | 3.2 | 11.3 | 0.00 | 0.00 | 0.00 | 36 | 1012.9 |
| 20260510111518 | 21 | 180 | 4.8 | 12.9 | 0.00 | 0.00 | 0.00 | 34 | 1012.9 |
| 20260510110517 | 20 | 180 | 9.7 | 24.1 | 0.00 | 0.00 | 0.00 | 34 | 1013.0 |
| 20260510105518 | 20 | 180 | 6.4 | 16.1 | 0.00 | 0.00 | 0.00 | 37 | 1013.1 |
| 20260510104517 | 21 | 180 | 8.0 | 19.3 | 0.00 | 0.00 | 0.00 | 33 | 1013.2 |
| 20260510103537 | 20 | 135 | 8.0 | 17.7 | 0.00 | 0.00 | 0.00 | 39 | 1013.3 |
| 20260510102517 | 20 | 180 | 6.4 | 17.7 | 0.00 | 0.00 | 0.00 | 41 | 1013.3 |
| 20260510101517 | 20 | 158 | 4.8 | 16.1 | 0.00 | 0.00 | 0.00 | 40 | 1013.3 |
| 20260510100517 | 20 | 248 | 3.2 | 11.3 | 0.00 | 0.00 | 0.00 | 39 | 1013.4 |
| 20260510095538 | 20 | 180 | 1.6 | 6.4 | 0.00 | 0.00 | 0.00 | 40 | 1013.6 |
| 20260510094517 | 20 | 113 | 3.2 | 9.7 | 0.00 | 0.00 | 0.00 | 42 | 1013.8 |
| 20260510093537 | 19 | 180 | 3.2 | 8.0 | 0.00 | 0.00 | 0.00 | 42 | 1013.6 |
| 20260510092517 | 18 | 113 | 3.2 | 9.7 | 0.00 | 0.00 | 0.00 | 44 | 1013.8 |
| 20260510091517 | 18 | 113 | 4.8 | 12.9 | 0.00 | 0.00 | 0.00 | 47 | 1014.0 |
| 20260510090537 | 19 | 180 | 1.6 | 11.3 | 0.00 | 0.00 | 0.00 | 44 | 1014.0 |
| 20260510085517 | 18 | 0.0 | 0.0 | 0.00 | 0.00 | 0.00 | 46 | 1014.1 | |
| 20260510084517 | 18 | 293 | 1.6 | 3.2 | 0.00 | 0.00 | 0.00 | 49 | 1014.1 |
| 20260510083517 | 17 | 0.0 | 3.2 | 0.00 | 0.00 | 0.00 | 50 | 1014.2 | |
| 20260510082517 | 17 | 0.0 | 6.4 | 0.00 | 0.00 | 0.00 | 52 | 1014.3 | |
| 20260510081516 | 16 | 158 | 1.6 | 11.3 | 0.00 | 0.00 | 0.00 | 54 | 1014.2 |
| 20260510080537 | 16 | 113 | 4.8 | 11.3 | 0.00 | 0.00 | 0.00 | 55 | 1014.0 |
| 20260510075516 | 16 | 113 | 1.6 | 9.7 | 0.00 | 0.00 | 0.00 | 56 | 1014.1 |
| 20260510074517 | 15 | 68 | 1.6 | 6.4 | 0.00 | 0.00 | 0.00 | 59 | 1014.2 |
| 20260510073537 | 15 | 135 | 1.6 | 8.0 | 0.00 | 0.00 | 0.00 | 61 | 1014.1 |
| 20260510072517 | 14 | 113 | 3.2 | 12.9 | 0.00 | 0.00 | 0.00 | 62 | 1014.1 |
| 20260510071517 | 13 | 180 | 1.6 | 8.0 | 0.00 | 0.00 | 0.00 | 63 | 1014.1 |
| 20260510070517 | 13 | 135 | 3.2 | 12.9 | 0.00 | 0.00 | 0.00 | 63 | 1013.9 |
| 20260510065516 | 13 | 90 | 3.2 | 9.7 | 0.00 | 0.00 | 0.00 | 64 | 1013.8 |
| 20260510064537 | 13 | 113 | 4.8 | 11.3 | 0.00 | 0.00 | 0.00 | 64 | 1013.8 |
| 20260510063517 | 13 | 135 | 1.6 | 4.8 | 0.00 | 0.00 | 0.00 | 66 | 1013.7 |
| 20260510062516 | 12 | 203 | 1.6 | 4.8 | 0.00 | 0.00 | 0.00 | 67 | 1013.5 |
| 20260510061516 | 12 | 113 | 1.6 | 11.3 | 0.00 | 0.00 | 0.00 | 66 | 1013.6 |
| 20260510060517 | 12 | 113 | 1.6 | 6.4 | 0.00 | 0.00 | 0.00 | 68 | 1013.7 |
| 20260510055516 | 12 | 90 | 3.2 | 9.7 | 0.00 | 0.00 | 0.00 | 69 | 1013.5 |
| 20260510054517 | 11 | 113 | 1.6 | 14.5 | 0.00 | 0.00 | 0.00 | 70 | 1013.3 |
| 20260510053516 | 11 | 113 | 6.4 | 12.9 | 0.00 | 0.00 | 0.00 | 70 | 1013.2 |
| 20260510052517 | 11 | 113 | 3.2 | 11.3 | 0.00 | 0.00 | 0.00 | 70 | 1013.2 |
| 20260510051517 | 11 | 90 | 4.8 | 12.9 | 0.00 | 0.00 | 0.00 | 70 | 1013.1 |
| 20260510050517 | 11 | 90 | 6.4 | 11.3 | 0.00 | 0.00 | 0.00 | 70 | 1013.0 |
| 20260510045516 | 11 | 90 | 3.2 | 9.7 | 0.00 | 0.00 | 0.00 | 69 | 1012.9 |
| 20260510044617 | 11 | 113 | 4.8 | 11.3 | 0.00 | 0.00 | 0.00 | 69 | 1013.0 |
| 20260510043537 | 11 | 180 | 1.6 | 9.7 | 0.00 | 0.00 | 0.00 | 69 | 1012.8 |
| 20260510042517 | 11 | 135 | 1.6 | 6.4 | 0.00 | 0.00 | 0.00 | 69 | 1012.8 |
| 20260510041537 | 11 | 90 | 1.6 | 6.4 | 0.00 | 0.00 | 0.00 | 69 | 1012.9 |
| 20260510040516 | 11 | 90 | 1.6 | 4.8 | 0.00 | 0.00 | 0.00 | 69 | 1012.7 |
| 20260510035516 | 11 | 90 | 4.8 | 11.3 | 0.00 | 0.00 | 0.00 | 68 | 1012.7 |
| 20260510034517 | 11 | 90 | 3.2 | 6.4 | 0.00 | 0.00 | 0.00 | 68 | 1012.8 |
| 20260510033516 | 11 | 113 | 1.6 | 6.4 | 0.00 | 0.00 | 0.00 | 68 | 1012.5 |
| 20260510032516 | 12 | 158 | 3.2 | 11.3 | 0.00 | 0.00 | 0.00 | 68 | 1012.8 |
| 20260510031516 | 12 | 113 | 4.8 | 12.9 | 0.00 | 0.00 | 0.00 | 67 | 1012.9 |
| 20260510030537 | 12 | 135 | 3.2 | 11.3 | 0.00 | 0.00 | 0.00 | 67 | 1012.9 |
| 20260510025537 | 12 | 113 | 1.6 | 6.4 | 0.00 | 0.00 | 0.00 | 67 | 1013.1 |
| 20260510024517 | 12 | 0.0 | 3.2 | 0.00 | 0.00 | 0.00 | 67 | 1013.1 | |
| 20260510023517 | 12 | 90 | 1.6 | 6.4 | 0.00 | 0.00 | 0.00 | 68 | 1012.9 |
| 20260510022516 | 12 | 135 | 1.6 | 11.3 | 0.00 | 0.00 | 0.00 | 67 | 1013.0 |
| 20260510021517 | 12 | 113 | 6.4 | 12.9 | 0.00 | 0.00 | 0.00 | 67 | 1012.9 |
| 20260510020516 | 12 | 203 | 1.6 | 6.4 | 0.00 | 0.00 | 0.00 | 66 | 1013.3 |
| 20260510015516 | 12 | 158 | 1.6 | 8.0 | 0.00 | 0.00 | 0.00 | 66 | 1013.5 |
| 20260510014516 | 12 | 158 | 1.6 | 11.3 | 0.00 | 0.00 | 0.00 | 66 | 1013.0 |
| 20260510013516 | 12 | 113 | 1.6 | 6.4 | 0.00 | 0.00 | 0.00 | 65 | 1013.0 |
| 20260510012516 | 12 | 90 | 4.8 | 11.3 | 0.00 | 0.00 | 0.00 | 65 | 1013.0 |
| 20260510011516 | 12 | 113 | 4.8 | 11.3 | 0.00 | 0.00 | 0.00 | 65 | 1013.2 |
| 20260510010536 | 12 | 90 | 4.8 | 12.9 | 0.00 | 0.00 | 0.00 | 64 | 1013.0 |
| 20260510005516 | 13 | 113 | 3.2 | 11.3 | 0.00 | 0.00 | 0.00 | 65 | 1013.2 |
| 20260510004516 | 13 | 135 | 3.2 | 11.3 | 0.00 | 0.00 | 0.00 | 65 | 1013.1 |
| 20260510003537 | 13 | 113 | 3.2 | 9.7 | 0.00 | 0.00 | 0.00 | 64 | 1013.3 |
| 20260510002516 | 13 | 113 | 1.6 | 6.4 | 0.00 | 0.00 | 0.00 | 64 | 1013.2 |
| 20260510001536 | 13 | 113 | 6.4 | 12.9 | 0.00 | 0.00 | 0.00 | 64 | 1013.1 |
| 20260510000516 | 13 | 135 | 6.4 | 16.1 | 0.00 | 0.00 | 0.00 | 64 | 1013.2 |
| 20260509235516 | 13 | 135 | 3.2 | 11.3 | 0.00 | 0.00 | 0.00 | 63 | 1013.2 |
| 20260509234516 | 13 | 90 | 4.8 | 11.3 | 0.00 | 0.00 | 0.00 | 63 | 1013.1 |
| 20260509233516 | 13 | 90 | 8.0 | 16.1 | 0.00 | 0.00 | 0.00 | 63 | 1013.1 |
| 20260509232516 | 13 | 90 | 9.7 | 14.5 | 0.00 | 0.00 | 0.00 | 62 | 1013.0 |
| 20260509231516 | 14 | 90 | 6.4 | 12.9 | 0.00 | 0.00 | 0.00 | 61 | 1013.1 |
| 20260509230516 | 14 | 113 | 3.2 | 11.3 | 0.00 | 0.00 | 0.00 | 61 | 1013.2 |
| 20260509225516 | 14 | 135 | 4.8 | 14.5 | 0.00 | 0.00 | 0.00 | 61 | 1013.1 |
| 20260509224516 | 14 | 113 | 4.8 | 11.3 | 0.00 | 0.00 | 0.00 | 61 | 1013.3 |
| 20260509223516 | 14 | 135 | 1.6 | 6.4 | 0.00 | 0.00 | 0.00 | 61 | 1013.3 |
| 20260509222516 | 14 | 90 | 4.8 | 14.5 | 0.00 | 0.00 | 0.00 | 60 | 1013.1 |
| 20260509221516 | 15 | 113 | 3.2 | 12.9 | 0.00 | 0.00 | 0.00 | 60 | 1013.0 |
| 20260509220537 | 15 | 113 | 4.8 | 16.1 | 0.00 | 0.00 | 0.00 | 59 | 1013.0 |
| 20260509215516 | 15 | 90 | 6.4 | 16.1 | 0.00 | 0.00 | 0.00 | 59 | 1013.0 |
| 20260509214516 | 15 | 113 | 4.8 | 16.1 | 0.00 | 0.00 | 0.00 | 58 | 1013.1 |
| 20260509213515 | 15 | 113 | 4.8 | 12.9 | 0.00 | 0.00 | 0.00 | 58 | 1013.1 |
| 20260509212516 | 15 | 113 | 9.7 | 17.7 | 0.00 | 0.00 | 0.00 | 58 | 1013.1 |
| 20260509211537 | 15 | 113 | 8.0 | 17.7 | 0.00 | 0.00 | 0.00 | 58 | 1013.2 |
| 20260509210516 | 15 | 113 | 8.0 | 17.7 | 0.00 | 0.00 | 0.00 | 58 | 1013.2 |
| 20260509205516 | 15 | 113 | 8.0 | 14.5 | 0.00 | 0.00 | 0.00 | 57 | 1013.3 |
| 20260509204517 | 16 | 135 | 4.8 | 16.1 | 0.00 | 0.00 | 0.00 | 57 | 1013.3 |
| 20260509203619 | 16 | 113 | 9.7 | 16.1 | 0.00 | 0.00 | 0.00 | 56 | 1013.3 |
| 20260509202518 | 16 | 90 | 11.3 | 19.3 | 0.00 | 0.00 | 0.00 | 55 | 1013.0 |
| 20260509201538 | 16 | 90 | 9.7 | 17.7 | 0.00 | 0.00 | 0.00 | 55 | 1013.0 |
| 20260509200558 | 16 | 90 | 11.3 | 19.3 | 0.00 | 0.00 | 0.00 | 56 | 1013.1 |
| 20260509195517 | 16 | 90 | 8.0 | 14.5 | 0.00 | 0.00 | 0.00 | 56 | 1012.9 |
| 20260509194517 | 16 | 90 | 8.0 | 12.9 | 0.00 | 0.00 | 0.00 | 55 | 1012.8 |
| 20260509193518 | 17 | 68 | 4.8 | 12.9 | 0.00 | 0.00 | 0.00 | 55 | 1012.7 |
| 20260509192517 | 17 | 0.0 | 4.8 | 0.00 | 0.00 | 0.00 | 54 | 1012.7 | |
| 20260509191518 | 17 | 0.0 | 0.0 | 0.00 | 0.00 | 0.00 | 53 | 1012.6 | |
| 20260509190518 | 17 | 113 | 3.2 | 6.4 | 0.00 | 0.00 | 0.00 | 52 | 1012.3 |
| 20260509185518 | 17 | 90 | 3.2 | 11.3 | 0.00 | 0.00 | 0.00 | 52 | 1012.1 |
| 20260509184538 | 17 | 113 | 8.0 | 17.7 | 0.00 | 0.00 | 0.00 | 52 | 1011.6 |
| 20260509183518 | 17 | 113 | 8.0 | 22.5 | 0.00 | 0.00 | 0.00 | 51 | 1011.5 |
| 20260509182518 | 17 | 90 | 11.3 | 19.3 | 0.00 | 0.00 | 0.00 | 50 | 1011.2 |
| 20260509181538 | 17 | 90 | 16.1 | 24.1 | 0.00 | 0.00 | 0.00 | 50 | 1011.0 |
| 20260509180517 | 17 | 90 | 11.3 | 24.1 | 0.00 | 0.00 | 0.00 | 49 | 1011.1 |
| 20260509175517 | 17 | 90 | 11.3 | 20.9 | 0.00 | 0.00 | 0.00 | 50 | 1011.0 |
| 20260509174518 | 17 | 113 | 12.9 | 25.7 | 0.00 | 0.00 | 0.00 | 50 | 1010.8 |
| 20260509173517 | 18 | 113 | 12.9 | 24.1 | 0.00 | 0.00 | 0.00 | 49 | 1010.9 |
| 20260509172517 | 18 | 113 | 9.7 | 24.1 | 0.00 | 0.00 | 0.00 | 50 | 1010.9 |
| 20260509171518 | 18 | 113 | 12.9 | 20.9 | 0.00 | 0.00 | 0.00 | 50 | 1010.7 |
| 20260509170518 | 18 | 113 | 11.3 | 20.9 | 0.00 | 0.00 | 0.00 | 51 | 1010.7 |
| 20260509165518 | 18 | 113 | 11.3 | 29.0 | 0.00 | 0.00 | 0.00 | 51 | 1010.9 |
| 20260509164537 | 18 | 113 | 12.9 | 25.7 | 0.00 | 0.00 | 0.00 | 53 | 1010.8 |
| 20260509163517 | 18 | 90 | 12.9 | 27.4 | 0.00 | 0.00 | 0.00 | 52 | 1010.9 |